Tiempo atmosférico en la estación meteorológica de Mérida, Badajoz (220 m.)



Fecha
DESCASC
Temp. máxima en grados centígrados (hora)
DESCASC
Temp. mínima en grados centígrados (hora)
DESCASC
Temp. media en grados centígrados
DESCASC
Racha de viento máxima en m/sg (hora)
DESCASC
Velocidad máxima media en intervalos de 10 minutos(hora)
DESCASC
Precipitaciones diarias en mm
DESCASC
Precipitaciones de 00:00 a 06:00 en mm
DESCASC
Precipitaciones de 06:00 a 12:00 en mm
DESCASC
Precipitaciones de 12:00 a 18:00 en mm
DESCASC
Precipitaciones de 18:00 a 24:00 en mm
DESCASC
16-01-2020 -- (--) -- (--) -- 8.89 (21:20) 5.28 (21:20) 1 0 0 0 1
15-01-2020 -- (--) -- (--) -- -- (--) -- (--) -- 0 0 -- 0
14-01-2020 -- (--) -- (--) -- 5.83 (13:50) 4.17 (08:40) 0 0 0 0 0
13-01-2020 -- (--) -- (--) -- 5 (10:10) 3.06 (10:40) 0 0 0 0 0
12-01-2020 -- (--) -- (--) -- 4.17 (11:20) 2.78 (11:00) 0 0 0 0 0
11-01-2020 -- (--) -- (--) -- 5 (15:00) 3.06 (13:40) 0 0 0 0 0
10-01-2020 -- (--) -- (--) -- 5.28 (14:50) 3.06 (14:50) 0 0 0 0 0
09-01-2020 -- (--) -- (--) -- 3.61 (16:10) 1.94 (02:50) 0 0 0 0 0
08-01-2020 -- (--) -- (--) -- 3.89 (08:30) 2.78 (10:20) 0 0 0 0 0
07-01-2020 -- (--) -- (--) -- 4.44 (09:10) 2.78 (09:10) 0 0 0 0 0
06-01-2020 -- (--) -- (--) -- 3.89 (11:30) 2.78 (11:50) 0 0 0 0 0
05-01-2020 -- (--) -- (--) -- 4.17 (14:40) 2.22 (10:40) 0 0 0 0 0
04-01-2020 -- (--) -- (--) -- 3.33 (17:00) 1.94 (09:40) 0 0 0 0 0
03-01-2020 -- (--) -- (--) -- 4.72 (15:00) 2.22 (15:00) 0 0 0 0 0
02-01-2020 15.2 (15:10) -1.2 (-00:0) 7 4.72 (15:10) 3.06 (16:00) 0 0 0 0 0
01-01-2020 16.2 (16:30) 1.2 (00:00) 8.7 3.89 (12:10) 2.5 (11:20) 0 0 0 0 0
31-12-2019 16.6 (16:20) 1.6 (00:00) 9.1 3.89 (12:00) 2.78 (01:10) 0 0 0 0 0
30-12-2019 17.3 (15:50) 2.7 (00:00) 10 3.89 (11:40) 2.5 (07:10) 0 0 0 0 0
29-12-2019 17.7 (15:10) 3.6 (00:00) 10.7 4.44 (12:20) 3.33 (12:30) 0 0 0 0 0
28-12-2019 19.4 (15:30) 4.1 (00:00) 11.7 4.72 (11:30) 3.06 (11:30) 0 0 0 0 0
27-12-2019 19.4 (16:00) 5.4 (00:00) 12.4 5.56 (15:20) 3.06 (14:30) 0 0 0 0 0
26-12-2019 17.1 (15:40) 3.7 (00:00) 10.4 3.06 (15:40) 1.94 (03:00) 0 0 0 0 0
25-12-2019 20.3 (15:20) 7.8 (00:00) 14 4.44 (11:30) 2.78 (11:20) 0 0 0 0 0
24-12-2019 19.5 (15:30) 6.4 (00:00) 13 5.56 (15:00) 3.61 (15:10) 0 0 0 0 0
23-12-2019 15.9 (15:00) 7.5 (00:00) 11.7 4.72 (23:20) 2.78 (23:20) 0.2 0.1 0.1 0 0
22-12-2019 16.5 (14:20) 11.3 (00:00) 13.9 10.56 (01:30) 6.39 (13:20) 0 0 0 0 0
21-12-2019 19.4 (14:40) 13.1 (00:00) 16.3 19.17 (16:00) 11.11 (16:00) 19.2 13.3 1.8 4.1 0
20-12-2019 17.8 (16:20) 14.1 (00:00) 15.9 17.22 (00:40) 8.89 (16:20) 12.1 4.5 1.6 0.6 5.4

Gráficas

Temp. máximas Temp. mínimas Temp. medias Precipitaciones Rachas de viento máximas Velocidades máximas media en intervalos de 10 minutos

Datos horarios

Fecha y hora oficial Temperatura (ºC) Velocidad del viento (km/h) Dirección del viento Racha (km/h) Dirección de racha Precipitación (mm) Presión (hPa) Tendencia (hPa) Humedad (%)
2020-01-18 23:00:00 -- 15 Oeste 28 Sudoeste 0 -- -- 76
2020-01-18 22:00:00 -- 20 Oeste 34 Oeste 0 -- -- 82
2020-01-18 21:00:00 -- 20 Oeste 36 Oeste 0 -- -- 76
2020-01-18 20:00:00 -- 14 Oeste 22 Oeste 0 -- -- 83
2020-01-18 19:00:00 -- 10 Oeste 24 Oeste 0 -- -- 76
2020-01-18 18:00:00 -- 13 Sudoeste 26 Oeste 0 -- -- 71
2020-01-18 17:00:00 -- 12 Sudoeste 22 Sudoeste 0 -- -- 70
2020-01-18 16:00:00 -- 10 Sudoeste 24 Sudoeste 0 -- -- 76
2020-01-18 15:00:00 -- 12 Oeste 24 Oeste 0 -- -- 74
2020-01-18 14:00:00 -- 2 Nordeste 10 Este 0.1 -- -- 93
2020-01-18 13:00:00 -- 5 Nordeste 12 Nordeste 0.4 -- -- 95
2020-01-18 12:00:00 -- 6 Nordeste 15 Nordeste 1 -- -- 95
2020-01-18 11:00:00 -- 8 Nordeste 19 Este 2.2 -- -- 95
2020-01-18 10:00:00 -- 14 Este 20 Este 4.9 -- -- 93
2020-01-18 09:00:00 -- 8 Este 19 Sudeste 1.4 -- -- 92
2020-01-18 08:00:00 -- 10 Sudeste 16 Este 0.1 -- -- 89
2020-01-18 07:00:00 -- 7 Este 14 Sudeste 1.7 -- -- 93
2020-01-18 06:00:00 -- 8 Este 14 Este 0.1 -- -- 89
2020-01-18 05:00:00 -- 8 Este 12 Este 0 -- -- 87
2020-01-18 04:00:00 -- 10 Este 14 Este 0 -- -- 89
2020-01-18 03:00:00 -- 6 Este 13 Este 0 -- -- 89
2020-01-18 02:00:00 -- 10 Este 15 Este 0 -- -- 89
2020-01-18 01:00:00 -- 8 Este 10 Este 0 -- -- 90
2020-01-18 00:00:00 -- 6 Este 9 Este 0 -- -- 91
2020-01-17 23:00:00 -- 4 Este 9 Este 0 -- -- 90
2020-01-17 22:00:00 -- 4 Este 8 Este 0 -- -- 90
2020-01-17 21:00:00 -- 4 Este 7 Este 0 -- -- 90
2020-01-17 20:00:00 -- 2 Este 5 Sudoeste 0 -- -- 89
2020-01-17 19:00:00 -- 0 Calma 5 Sudoeste 0 -- -- 88
2020-01-17 18:00:00 -- 3 Sur 4 Sudeste 0 -- -- 76
2020-01-17 17:00:00 -- 0 Calma 8 Noroeste 0 -- -- 61
2020-01-17 16:00:00 -- 2 Noroeste 8 Norte 0 -- -- 61
2020-01-17 15:00:00 -- 0 Calma 9 Oeste 0 -- -- 71
2020-01-17 14:00:00 -- 5 Oeste 25 Noroeste 0 -- -- 80
2020-01-17 13:00:00 -- 5 Noroeste 10 Noroeste 0 -- -- 84
2020-01-17 12:00:00 -- 7 Oeste 13 Sudoeste 0 -- -- 82
2020-01-17 11:00:00 -- 0 Calma 6 Oeste 0 -- -- 92
2020-01-17 10:00:00 -- 3 Sudoeste 22 Oeste 0 -- -- 95
2020-01-17 09:00:00 -- 4 Sudoeste 9 Sudoeste 0 -- -- 95
2020-01-17 08:00:00 -- 5 Oeste 10 Sudoeste 0 -- -- 95
2020-01-17 07:00:00 -- 0 Calma 10 Oeste 0 -- -- 95
2020-01-17 06:00:00 -- 3 Sudoeste 6 Oeste 0 -- -- 95
2020-01-17 05:00:00 -- 0 Calma 12 Oeste 0 -- -- 94
2020-01-17 04:00:00 -- 3 Sudoeste 5 Sudoeste 0.1 -- -- 95
2020-01-17 03:00:00 -- 0 Calma 5 Noroeste 0 -- -- 95
2020-01-17 02:00:00 -- 0 Calma 13 Sur 0 -- -- 94
2020-01-17 01:00:00 -- 8 Sur 14 Sudoeste 0.1 -- -- 93
2020-01-17 00:00:00 -- 0 Calma 12 Sur 0.2 -- -- 91
2020-01-16 23:00:00 -- 2 Oeste 20 Sudoeste 0.8 -- -- 84
2020-01-16 22:00:00 -- 12 Sur 32 Sudoeste 0 -- -- 47
2020-01-16 21:00:00 -- 17 Sur 30 Sur 0 -- -- 43
2020-01-16 20:00:00 -- 14 Sur 28 Sur 0 -- -- 42
2020-01-16 19:00:00 -- 12 Sur 25 Sudoeste 0 -- -- 42
2020-01-16 18:00:00 -- 9 Sudoeste 23 Sudoeste 0 -- -- 37
2020-01-16 17:00:00 -- 9 Sudoeste 26 Sudoeste 0 -- -- 35
2020-01-16 16:00:00 -- 13 Sudoeste 27 Sudoeste 0 -- -- 33
2020-01-16 15:00:00 -- 13 Sudoeste 30 Sudoeste 0 -- -- 36
2020-01-16 14:00:00 -- 10 Sudoeste 20 Sudoeste 0 -- -- 42
2020-01-16 13:00:00 -- 7 Sudeste 18 Sudeste 0 -- -- 59
2020-01-16 12:00:00 -- 12 Sudeste 19 Este 0 -- -- 68
2020-01-16 11:00:00 -- 11 Este 20 Este 0 -- -- 76
2020-01-16 10:00:00 -- 9 Sudeste 15 Este 0 -- -- 84
2020-01-16 09:00:00 -- 9 Sudeste 19 Sudeste 0 -- -- 89
2020-01-16 08:00:00 -- 13 Sudeste 19 Sudeste 0 -- -- 87
2020-01-16 07:00:00 -- 10 Sudeste 16 Este 0 -- -- 89
2020-01-16 06:00:00 -- 9 Este 14 Este 0 -- -- 90
2020-01-16 05:00:00 -- 6 Sudeste 14 Este 0 -- -- 88
2020-01-16 04:00:00 -- 9 Este 19 Este 0 -- -- 87
2020-01-16 03:00:00 -- 5 Este 10 Nordeste 0 -- -- 85
2020-01-16 02:00:00 -- 6 Sudeste 12 Sudeste 0 -- -- 84
2020-01-16 01:00:00 -- 5 Este 15 Sudeste 0 -- -- 83
2020-01-16 00:00:00 -- 10 Sudeste 17 Sudeste 0 -- -- 76
2020-01-15 23:00:00 -- 9 Sudeste 21 Sudeste 0 -- -- 76
2020-01-15 22:00:00 -- 9 Sudeste 18 Sudeste 0 -- -- 80
2020-01-15 21:00:00 -- 11 Sudeste 21 Sudeste 0 -- -- 76
2020-01-15 20:00:00 -- 14 Sudeste 23 Sudeste 0 -- -- 76
2020-01-15 19:00:00 -- 13 Sudeste 22 Sudeste 0 -- -- 72
2020-01-15 18:00:00 -- 11 Sur -- -- -- -- -- 66
2020-01-15 17:00:00 -- -- -- -- -- -- -- -- --
2020-01-15 16:00:00 -- -- -- -- -- -- -- -- --
2020-01-15 15:00:00 -- -- -- -- -- -- -- -- --
2020-01-15 14:00:00 -- 16 Sudoeste 32 Sur 0 -- -- 59
2020-01-15 13:00:00 -- 10 Sur 22 Sudeste 0 -- -- 65
2020-01-15 12:00:00 -- 12 Sudeste 22 Sur 0 -- -- 68
2020-01-15 11:00:00 -- 11 Sudeste 26 Sudeste 0 -- -- 72
2020-01-15 10:00:00 -- 12 Sudeste 22 Sudeste 0 -- -- 73
2020-01-15 09:00:00 -- 15 Este 23 Este 0 -- -- 76
2020-01-15 08:00:00 -- 11 Este 19 Este 0 -- -- 76
2020-01-15 07:00:00 -- 11 Este 21 Este 0 -- -- 76
2020-01-15 06:00:00 -- 12 Este 22 Sudeste 0 -- -- 76
2020-01-15 05:00:00 -- 14 Sudeste 24 Sudeste 0 -- -- 73
2020-01-15 04:00:00 -- 6 Este 13 Este 0 -- -- 83
2020-01-15 03:00:00 -- 5 Este 24 Sudeste 0 -- -- 81
2020-01-15 02:00:00 -- 13 Sudeste 22 Sudeste 0 -- -- 74
2020-01-15 01:00:00 -- 7 Este 17 Este 0 -- -- 76
2020-01-15 00:00:00 -- 6 Nordeste 13 Nordeste 0 -- -- 75
2020-01-14 23:00:00 -- 5 Nordeste 10 Este 0 -- -- 75
2020-01-14 22:00:00 -- 3 Nordeste 14 Este 0 -- -- 74
2020-01-14 21:00:00 -- 6 Este 12 Sudeste 0 -- -- 74
2020-01-14 20:00:00 -- 6 Sudeste 11 Este 0 -- -- 81
2020-01-14 19:00:00 -- 6 Este 11 Este 0 -- -- 82
2020-01-14 18:00:00 -- 6 Este 11 Este 0 -- -- 80
2020-01-14 17:00:00 -- 5 Este 9 Este 0 -- -- 78
2020-01-14 16:00:00 -- 5 Este 13 Este 0 -- -- 80
2020-01-14 15:00:00 -- 9 Este 17 Este 0 -- -- 60
2020-01-14 14:00:00 -- 12 Este 21 Este 0 -- -- 59
2020-01-14 13:00:00 -- 12 Este 18 Este 0 -- -- 66
2020-01-14 12:00:00 -- 11 Este 17 Este 0 -- -- 71
2020-01-14 11:00:00 -- 5 Este 19 Este 0 -- -- 75
2020-01-14 10:00:00 -- 12 Este 19 Este 0 -- -- 86
2020-01-14 09:00:00 -- 12 Este 19 Este 0 -- -- 91
2020-01-14 08:00:00 -- 5 Nordeste 15 Sudeste 0 -- -- 91
2020-01-14 07:00:00 -- 10 Este 15 Este 0 -- -- 93
2020-01-14 06:00:00 -- 6 Este 12 Este 0 -- -- 93
2020-01-14 05:00:00 -- 5 Este 9 Este 0 -- -- 93
2020-01-14 04:00:00 -- 7 Este 14 Este 0 -- -- 93
2020-01-14 03:00:00 -- 11 Este 14 Este 0 -- -- 93
2020-01-14 02:00:00 -- 0 Calma 12 Este 0 -- -- 92
2020-01-14 01:00:00 -- 10 Este 12 Este 0 -- -- 90
2020-01-14 00:00:00 -- 3 Nordeste 8 Este 0 -- -- 91
2020-01-13 23:00:00 -- 6 Este 9 Este 0 -- -- 91
2020-01-13 22:00:00 -- 0 Calma 8 Este 0 -- -- 91
2020-01-13 21:00:00 -- 0 Calma 4 Sudeste 0 -- -- 89
2020-01-13 20:00:00 -- 0 Calma 4 Sudeste 0 -- -- 84
2020-01-13 19:00:00 -- 0 Calma 4 Este 0 -- -- 78
2020-01-13 18:00:00 -- 0 Calma 8 Oeste 0 -- -- 57
2020-01-13 17:00:00 -- 4 Oeste 13 Oeste 0 -- -- 45
2020-01-13 16:00:00 -- 4 Sudoeste 9 Oeste 0 -- -- 43
2020-01-13 15:00:00 -- 4 Noroeste 7 Noroeste 0 -- -- 43
2020-01-13 14:00:00 -- 3 Nordeste 14 Este 0 -- -- 54
2020-01-13 13:00:00 -- 9 Este 14 Este 0 -- -- 63
2020-01-13 12:00:00 -- 8 Este 14 Este 0 -- -- 72
2020-01-13 11:00:00 -- 6 Este 18 Este 0 -- -- 81
2020-01-13 10:00:00 -- 9 Este 15 Este 0 -- -- 90
2020-01-13 09:00:00 -- 9 Este 15 Este 0 -- -- 92
2020-01-13 08:00:00 -- 8 Este 13 Este 0 -- -- 92
2020-01-13 07:00:00 -- 8 Este 14 Este 0 -- -- 92
2020-01-13 06:00:00 -- 7 Sudeste 12 Este 0 -- -- 92
2020-01-13 05:00:00 -- 6 Este 12 Este 0 -- -- 92
2020-01-13 04:00:00 -- 7 Este 11 Este 0 -- -- 91
2020-01-13 03:00:00 -- 6 Este 8 Este 0 -- -- 90
2020-01-13 02:00:00 -- 0 Calma 9 Este 0 -- -- 90
2020-01-13 01:00:00 -- 6 Este 8 Este 0 -- -- 90
2020-01-13 00:00:00 -- 3 Este 6 Este 0 -- -- 92
2020-01-12 23:00:00 -- 0 Calma 4 Este 0 -- -- 91
2020-01-12 22:00:00 -- 0 Calma 4 Este 0 -- -- 89
2020-01-12 21:00:00 -- 0 Calma 3 Este 0 -- -- 83
2020-01-12 20:00:00 -- 0 Calma 4 Este 0 -- -- 76
2020-01-12 19:00:00 -- 2 Sur 3 Sur 0 -- -- 67
2020-01-12 18:00:00 -- 2 Sudoeste 4 Sudoeste 0 -- -- 42
2020-01-12 17:00:00 -- 0 Calma 5 Sur 0 -- -- 37
2020-01-12 16:00:00 -- 0 Calma 6 Norte 0 -- -- 37
2020-01-12 15:00:00 -- 2 Oeste 6 Oeste 0 -- -- 39
2020-01-12 14:00:00 -- 0 Calma 8 Nordeste 0 -- -- 43
2020-01-12 13:00:00 -- 4 Este 10 Este 0 -- -- 54
2020-01-12 12:00:00 -- 6 Este 15 Este 0 -- -- 66
2020-01-12 11:00:00 -- 10 Este 13 Este 0 -- -- 76
2020-01-12 10:00:00 -- 5 Este 10 Este 0 -- -- 84
2020-01-12 09:00:00 -- 5 Este 10 Este 0 -- -- 92
2020-01-12 08:00:00 -- 8 Este 10 Este 0 -- -- 93
2020-01-12 07:00:00 -- 6 Este 12 Este 0 -- -- 93
2020-01-12 06:00:00 -- 8 Este 11 Este 0 -- -- 93
2020-01-12 05:00:00 -- 3 Este 6 Este 0 -- -- 93
2020-01-12 04:00:00 -- 5 Este 7 Este 0 -- -- 93
2020-01-12 03:00:00 -- 3 Este 5 Este 0 -- -- 93
2020-01-12 02:00:00 -- 3 Este 7 Este 0 -- -- 92
2020-01-12 01:00:00 -- 0 Calma 7 Este 0 -- -- 92
2020-01-12 00:00:00 -- 0 Calma 4 Este 0 -- -- 92
2020-01-11 23:00:00 -- 0 Calma 5 Sudoeste 0 -- -- 91
2020-01-11 22:00:00 -- 0 Calma 6 Sudoeste 0 -- -- 90
2020-01-11 21:00:00 -- 0 Calma 5 Norte 0 -- -- 85
2020-01-11 20:00:00 -- 2 Este 6 Este 0 -- -- 77
2020-01-11 19:00:00 -- 3 Sudeste 6 Este 0 -- -- 71
2020-01-11 18:00:00 -- 5 Este 13 Este 0 -- -- 45
2020-01-11 17:00:00 -- 9 Este 16 Este 0 -- -- 39
2020-01-11 16:00:00 -- 8 Nordeste 17 Nordeste 0 -- -- 38
2020-01-11 15:00:00 -- 10 Nordeste 18 Nordeste 0 -- -- 38
2020-01-11 14:00:00 -- 8 Nordeste 16 Nordeste 0 -- -- 40
2020-01-11 13:00:00 -- 7 Este 17 Este 0 -- -- 43
2020-01-11 12:00:00 -- 5 Nordeste 11 Este 0 -- -- 49
2020-01-11 11:00:00 -- 5 Este 12 Sudeste 0 -- -- 66
2020-01-11 10:00:00 -- 4 Este 8 Este 0 -- -- 79
2020-01-11 09:00:00 -- 5 Este 6 Este 0 -- -- 92
2020-01-11 08:00:00 -- 2 Sudeste 7 Este 0 -- -- 92
2020-01-11 07:00:00 -- 3 Este 7 Este 0 -- -- 91
2020-01-11 06:00:00 -- 0 Calma 4 Noroeste 0 -- -- 93
2020-01-11 05:00:00 -- 0 Calma 5 Este 0 -- -- 93
2020-01-11 04:00:00 -- 0 Calma 5 Nordeste 0 -- -- 93
2020-01-11 03:00:00 -- 0 Calma 5 Este 0 -- -- 92
2020-01-11 02:00:00 -- 0 Calma 3 Este 0 -- -- 92
2020-01-11 01:00:00 -- 0 Calma 3 Este 0 -- -- 91
2020-01-11 00:00:00 -- 0 Calma 5 Este 0 -- -- 89
2020-01-10 23:00:00 -- 0 Calma 6 Sudeste 0 -- -- 84
2020-01-10 22:00:00 -- 3 Sur 10 Norte 0 -- -- 76
2020-01-10 21:00:00 -- 3 Norte 11 Norte 0 -- -- 67
2020-01-10 20:00:00 -- 4 Norte 8 Norte 0 -- -- 69
2020-01-10 19:00:00 -- 0 Calma 6 Noroeste 0 -- -- 72
2020-01-10 18:00:00 -- 0 Calma 9 Nordeste 0 -- -- 52
2020-01-10 17:00:00 -- 3 Norte 12 Noroeste 0 -- -- 46
2020-01-10 16:00:00 -- 5 Norte 17 Nordeste 0 -- -- 46
2020-01-10 15:00:00 -- 7 Nordeste 19 Este 0 -- -- 48
2020-01-10 14:00:00 -- 9 Este 17 Este 0 -- -- 51
2020-01-10 13:00:00 -- 6 Este 13 Este 0 -- -- 54
2020-01-10 12:00:00 -- 0 Calma 8 Noroeste 0 -- -- 54
2020-01-10 11:00:00 8.5 3 Noroeste 7 Noroeste 0 -- -- 60
2020-01-10 10:00:00 5.5 3 Sudoeste 9 Noroeste 0 -- -- 85
2020-01-10 09:00:00 -0.8 4 Sudoeste 14 Oeste 0 -- -- 90
2020-01-10 08:00:00 2.5 5 Sudoeste 12 Sudoeste 0 -- -- 91
2020-01-10 07:00:00 0.4 7 Sudoeste 13 Oeste 0 -- -- 92
2020-01-10 06:00:00 3.6 6 Sudoeste 11 Sudoeste 0 -- -- 95
2020-01-10 05:00:00 4.1 6 Sudoeste 14 Sudoeste 0 -- -- 95
2020-01-10 04:00:00 5.4 6 Sudoeste 13 Sudoeste 0 -- -- 95
2020-01-10 03:00:00 5.9 6 Sudoeste 13 Sudoeste 0 -- -- 95
2020-01-10 02:00:00 5.8 6 Sudoeste 11 Sudoeste 0 -- -- 95
2020-01-10 01:00:00 7 5 Sudoeste 8 Oeste 0 -- -- 93
2020-01-10 00:00:00 3.8 2 Sudoeste 6 Oeste 0 -- -- 92
2020-01-09 23:00:00 6.5 0 Calma 5 Sudoeste 0 -- -- 89
2020-01-09 22:00:00 7.4 2 Oeste 8 Oeste 0 -- -- 90
2020-01-09 21:00:00 6.5 0 Calma 3 Nordeste 0 -- -- 90
2020-01-09 20:00:00 5.8 0 Calma 5 Oeste 0 -- -- 89
2020-01-09 19:00:00 7.3 5 Oeste 8 Oeste 0 -- -- 84
2020-01-09 18:00:00 11.1 4 Oeste 11 Oeste 0 -- -- 68
2020-01-09 17:00:00 13.2 4 Sudoeste 13 Oeste 0 -- -- 57
2020-01-09 16:00:00 13.3 7 Oeste 12 Sudoeste 0 -- -- 55
2020-01-09 15:00:00 12.8 4 Noroeste 8 Oeste 0 -- -- 56
2020-01-09 14:00:00 10.7 4 Sudoeste 9 Sudoeste 0 -- -- 62
2020-01-09 13:00:00 8.5 3 Oeste 8 Noroeste 0 -- -- 67
2020-01-09 12:00:00 6.1 0 Calma 7 Noroeste 0 -- -- 91
2020-01-09 11:00:00 2.6 0 Calma 9 Este 0 -- -- 95
2020-01-09 10:00:00 2 0 Calma 5 Este 0 -- -- 95
2020-01-09 09:00:00 1.3 0 Calma 9 Este 0 -- -- 95
2020-01-09 08:00:00 0.9 6 Este 9 Este 0 -- -- 95
2020-01-09 07:00:00 -0.5 4 Este 7 Este 0 -- -- 94
2020-01-09 06:00:00 -2.5 0 Calma 5 Oeste 0 -- -- 94
2020-01-09 05:00:00 0 3 Oeste 9 Este 0 -- -- 95
2020-01-09 04:00:00 -0.4 3 Este 6 Este 0 -- -- 94
2020-01-09 03:00:00 1.6 2 Este 10 Este 0 -- -- 95
2020-01-09 02:00:00 1 0 Calma 6 Este 0 -- -- 95
2020-01-09 01:00:00 0.5 2 Sudeste 4 Sur 0 -- -- 94
2020-01-09 00:00:00 1.2 0 Calma 2 Sur 0 -- -- 93
2020-01-08 23:00:00 1.2 0 Calma 2 Sudoeste 0 -- -- 93
2020-01-08 22:00:00 2.1 0 Calma -- -- 0 -- -- 92
2020-01-08 21:00:00 3.2 0 Calma 3 Sur 0 -- -- 91
2020-01-08 20:00:00 4.1 0 Calma 4 Sur 0 -- -- 89
2020-01-08 19:00:00 6 3 Sur 4 Sur 0 -- -- 81
2020-01-08 18:00:00 10.9 0 Calma 4 Oeste 0 -- -- 59
2020-01-08 17:00:00 14.9 0 Calma 5 Oeste 0 -- -- 43
2020-01-08 16:00:00 15.3 0 Calma 6 Oeste 0 -- -- 45
2020-01-08 15:00:00 14 0 Calma 10 Este 0 -- -- 53
2020-01-08 14:00:00 10.8 5 Este 9 Este 0 -- -- 65
2020-01-08 13:00:00 8.5 4 Este 10 Este 0 -- -- 75
2020-01-08 12:00:00 1 6 Este 13 Este 0 -- -- 95
2020-01-08 11:00:00 2.5 7 Este 14 Este 0 -- -- 95
2020-01-08 10:00:00 0.8 8 Este 13 Este 0 -- -- 95
2020-01-08 09:00:00 -0.2 5 Este 14 Este 0 -- -- 95
2020-01-08 08:00:00 -0.4 9 Este 12 Este 0 -- -- 93
2020-01-08 07:00:00 0.2 7 Este 9 Este 0 -- -- 94
2020-01-08 06:00:00 3.5 6 Este 10 Este 0 -- -- 95
2020-01-08 05:00:00 1 8 Este 9 Este 0 -- -- 95
2020-01-08 04:00:00 0.4 6 Este 8 Este 0 -- -- 94
2020-01-08 03:00:00 0.8 0 Calma 4 Sudeste 0 -- -- 95
2020-01-08 02:00:00 0.5 0 Calma 3 Sudeste 0 -- -- 95
2020-01-08 01:00:00 1 0 Calma 0 Calma 0 -- -- 95
2020-01-08 00:00:00 1.3 0 Calma 3 Sur 0 -- -- 93
2020-01-07 23:00:00 2.3 2 Este 4 Sudeste 0 -- -- 93
2020-01-07 22:00:00 3.8 0 Calma 4 Sudeste 0 -- -- 92
2020-01-07 21:00:00 4.6 0 Calma -- -- 0 -- -- 91
2020-01-07 20:00:00 4.7 0 Calma 2 Noroeste 0 -- -- 88
2020-01-07 19:00:00 6.3 0 Calma 3 Sur 0 -- -- 80
2020-01-07 18:00:00 11.4 0 Calma 4 Este 0 -- -- 60
2020-01-07 17:00:00 15.7 2 Este 8 Este 0 -- -- 49
2020-01-07 16:00:00 15.4 3 Sudeste 11 Sudeste 0 -- -- 50
2020-01-07 15:00:00 14.2 4 Nordeste 9 Este 0 -- -- 55
2020-01-07 14:00:00 12.3 5 Este 11 Sudeste 0 -- -- 63
2020-01-07 13:00:00 9.1 8 Sudeste 14 Sudeste 0 -- -- 76
2020-01-07 12:00:00 5.5 9 Este 15 Este 0 -- -- 93
2020-01-07 11:00:00 3.3 6 Este 11 Este 0 -- -- 95
2020-01-07 10:00:00 -0.8 5 Nordeste 16 Este 0 -- -- 94
2020-01-07 09:00:00 1 8 Este 13 Este 0 -- -- 95
2020-01-07 08:00:00 1.6 6 Este 9 Este 0 -- -- 95
2020-01-07 07:00:00 1.9 6 Este 11 Este 0 -- -- 95
2020-01-07 06:00:00 0.6 8 Este 9 Este 0 -- -- 95
2020-01-07 05:00:00 2.4 5 Este 9 Este 0 -- -- 95
2020-01-07 04:00:00 0.6 0 Calma 5 Este 0 -- -- 95
2020-01-07 03:00:00 1.1 2 Este 4 Este 0 -- -- 95
2020-01-07 02:00:00 1.2 3 Este 4 Este 0 -- -- 93
2020-01-07 01:00:00 2.2 2 Sur 7 Este 0 -- -- 93
2020-01-07 00:00:00 2.9 6 Este 9 Este 0 -- -- 93
2020-01-06 23:00:00 3 0 Calma 4 Oeste 0 -- -- 93
2020-01-06 22:00:00 3.5 0 Calma 4 Sudeste 0 -- -- 92
2020-01-06 21:00:00 4.1 0 Calma 5 Oeste 0 -- -- 92
2020-01-06 20:00:00 5 0 Calma 3 Noroeste 0 -- -- 89
2020-01-06 19:00:00 5.5 0 Calma 4 Sudeste 0 -- -- 84
2020-01-06 18:00:00 10.4 3 Noroeste 5 Noroeste 0 -- -- 62
2020-01-06 17:00:00 15.7 0 Calma 7 Este 0 -- -- 43
2020-01-06 16:00:00 15.1 4 Este 10 Sudeste 0 -- -- 48
2020-01-06 15:00:00 15.1 2 Nordeste 10 Este 0 -- -- 49
2020-01-06 14:00:00 12.9 5 Este 11 Este 0 -- -- 56
2020-01-06 13:00:00 10.7 4 Este 10 Este 0 -- -- 62
2020-01-06 12:00:00 8.4 8 Este 14 Este 0 -- -- 73
2020-01-06 11:00:00 6 6 Este 10 Este 0 -- -- 80
2020-01-06 10:00:00 2.5 5 Este 11 Este 0 -- -- 92